Regional Weather Roundup
Issued by NWS

Home | Current Version | Previous Version | Text Only | Print | Product List | Glossary On
Versions: 1 2 3 4 5 6 7 8 9 10 11 12 13 14 15 16 17 18 19 20 21 22 23 24 25 26 27 28 29 30 31 32 33 34 35 36 37 38 39 40 41 42 43 44 45 46 47 48 49
000
ASUS45 KBOU 240107
RWRCO

WEATHER ROUNDUP FOR COLORADO
NATIONAL WEATHER SERVICE DENVER/BOULDER CO
600 PM MST SUN NOV 23 2014

NOTE: "FAIR" INDICATES FEW OR NO CLOUDS BELOW 12000 FEET WITH NO
SIGNIFICANT WEATHER AND/OR OBSTRUCTIONS TO VISIBILITY.

COZ001>005-013-030-031-240200-
...NORTHWEST COLORADO...

CITY           SKY/WX    TMP DP  RH WIND       PRES   REMARKS
CRAIG          CLOUDY    27  18  69 W12       30.03R WCI  17
HAYDEN         MOCLDY    23  14  68 W10       30.00R WCI  12
MEEKER         PTCLDY    27  13  55 NW14      30.04R WCI  16
MOUNT WERNER   NOT AVBL
STEAMBOAT SPGS MOCLDY    24  11  59 W13G23    29.98R WCI  12
WALDEN         CLOUDY    18  12  79 W16       29.90S WCI   3
$$

COZ006>008-011-240200-
...WEST CENTRAL VALLEYS...

CITY           SKY/WX    TMP DP  RH WIND       PRES   REMARKS
GRAND JUNCTION PTCLDY    35  17  47 NW17      30.06R WCI  25
MONTROSE       PTCLDY    31  13  47 NW8       30.07R WCI  23
EAGLE          MOCLDY    25  21  86 CALM      30.03R
RIFLE          PTCLDY    22  17  81 SE5       30.05R WCI  16
DELTA          PTCLDY    37  17  46 W7        30.06R
NUCLA          PTCLDY    30  21  69 W6        30.11R WCI  24
$$

COZ017>023-064>068-240200-
...SOUTHWEST COLORADO...

CITY           SKY/WX    TMP DP  RH WIND       PRES   REMARKS
DURANGO        PTCLDY    28  17  63 NW16      30.00R WCI  16
CORTEZ         CLOUDY    31  23  72 N14       30.07R WCI  21
PAGOSA SPRINGS PTCLDY    30   1  28 N9        29.94R WCI  22
TELLURIDE      NOT AVBL
WOLF CREEK PAS PTCLDY     5  -4  66 MISG      29.89R
$$

COZ009-010-012-014-032>034-037-058>063-240200-
...CENTRAL COLORADO...

CITY           SKY/WX    TMP DP  RH WIND       PRES   REMARKS
ASPEN          MOCLDY    20  16  84 N10       29.97R WCI   9
BUENA VISTA    PTCLDY    23   5  46 NW5       29.91R WCI  17
COPPER MTN     CLOUDY     9   1  72 W33G43    29.81R WCI -15
BERTHOUD PASS  HVY SNOW   0  -6  78 NW38      29.71F VSB 1/4 WCI -29
COTTONWOOD PAS PTCLDY    19   3  49 W16G25    29.86S WCI   5
GUNNISON       MOCLDY    21   7  53 W12       29.99R WCI   9
KREMMLING      CLOUDY    21  12  68 W6        29.97R WCI  14
LEADVILLE      LGT SNOW  10   6  84 N13G22    29.87R FOG     WCI  -5
MONARCH PASS     N/A      5   1  85 MISG      29.93R
SALIDA         PTCLDY    28   0  29 W7        29.98R WCI  21
SUNLIGHT         N/A    N/A N/A N/A MISG      29.94R
WILKERSON PASS PTCLDY     9  -2  61 NW17G32   29.83R WCI -10
$$

COZ069>075-240200-
...SAN LUIS VALLEY/SANGRE DE CRISTO MOUNTAINS...

CITY           SKY/WX    TMP DP  RH WIND       PRES   REMARKS
ALAMOSA        PTCLDY    26   6  42 NW20G32   29.88R WCI  12
LA VETA PASS   MOCLDY    16  10  79 MISG      29.83R
SAGUACHE       NOT AVBL
$$

COZ035-036-038>040-240200-
...NORTHERN COLORADO FRONT RANGE...

CITY           SKY/WX    TMP DP  RH WIND       PRES   REMARKS
DENVER INTL AP CLOUDY    31  17  56 N25       29.88R WCI  17
DMNS CITY PARK   N/A     32  19  58 N5        29.90S WCI  27
AURORA         MOCLDY    31  18  60 NW10      29.90R WCI  22
FRONT RANGE AP NOT AVBL
ERIE MUNI ARPT MOCLDY    29  21  71 CALM      29.90S
BOULDER MUN AP MOCLDY    32  19  59 SW5       29.89S WCI  27
CENTENNIAL     FLURRIES  29  22  75 N12       29.90R WCI  19
BROOMFIELD     MOCLDY    30  19  64 W6        29.90R WCI  24
FORT COLLINS   PTCLDY    28  18  64 NW10      29.91R WCI  19
LONGMONT       PTCLDY    30  22  74 CALM      29.92R
$$

COZ041-046-047-076>085-087-088-240200-
...PIKES PEAK/PALMER DIVIDE AND SOUTHERN FOOTHILLS...

CITY           SKY/WX    TMP DP  RH WIND       PRES   REMARKS
COLO. SPRINGS  LGT SNOW  28  26  92 N9        29.89R FOG     WCI  19
A. F. ACADEMY  CLOUDY    27  25  93 N13       29.88R FOG     WCI  16
ELLICOTT       NOT AVBL
FALCON         NOT AVBL
FORT CARSON    LGT SNOW  28  28 100 NW2       29.89R FOG
LIMON          CLOUDY    28  26  92 W10       29.86F WCI  19
MONUMENT HILL  LGT SNOW  23  21  93 N8        29.87R WCI  14
TRINIDAD       CLOUDY    31  22  69 NW9       29.89R WCI  23
$$

COZ042>045-048>051-090-091-240200-
...NORTHEAST COLORADO...

CITY           SKY/WX    TMP DP  RH WIND       PRES   REMARKS
GREELEY ARPT   PTCLDY    30  16  55 NW14      29.90R WCI  20
AKRON          PTCLDY    30  13  49 NW10      29.82R WCI  21
BURLINGTON     CLEAR     30   9  41 NW9       29.81R WCI  22
WRAY           CLEAR     35   9  33 NW9       29.81R WCI  28
STERLING       PTCLDY    36  18  48 NW12      29.82R
HOLYOKE        CLEAR     37  14  38 NW13      29.80R
FORT MORGAN    PTCLDY    33  11  39 NW15G22   29.87R WCI  23
$$

COZ086-089-092>099-240200-
...SOUTHEAST COLORADO...

CITY           SKY/WX    TMP DP  RH WIND       PRES   REMARKS
PUEBLO         LGT SNOW  33  31  92 NW13      29.93R VSB 1   WCI  24
LA JUNTA       CLOUDY    41  19  41 N10       29.87R
LAMAR          PTCLDY    33  14  45 NW7       29.83R WCI  27
SPRINGFIELD      N/A     26  14  60 NW9       29.83R WCI  17
$$


USA.gov is the U.S. government's official web portal to all federal, state and local government web resources and services.